Time,TemperatureF,DewpointF,PressureIn,WindDirection,WindDirectionDegrees,WindSpeedMPH,WindSpeedGustMPH,Humidity,HourlyPrecipIn,Conditions,Clouds,dailyrainin,SoftwareType,DateUTC
2013-04-02 00:00:00,32.9,15.4,30.12,NNW,328,1.0,5.0,48,0.00,,CLR,0.00,VWS V14.01,2013-04-02 04:00:00,
2013-04-02 00:05:00,32.8,15.3,30.12,NNW,329,2.0,5.0,48,0.00,,CLR,0.00,VWS V14.01,2013-04-02 04:05:00,
2013-04-02 00:10:00,32.7,15.2,30.12,North,349,0.0,7.0,48,0.00,,CLR,0.00,VWS V14.01,2013-04-02 04:10:00,
2013-04-02 00:15:00,32.5,14.5,30.12,NW,322,1.0,7.0,47,0.00,,CLR,0.00,VWS V14.01,2013-04-02 04:15:00,
2013-04-02 00:20:00,32.7,14.7,30.12,NNW,339,2.0,5.0,47,0.00,,CLR,0.00,VWS V14.01,2013-04-02 04:20:00,
2013-04-02 00:25:00,32.5,14.0,30.12,NW,313,1.0,7.0,46,0.00,,CLR,0.00,VWS V14.01,2013-04-02 04:25:00,
2013-04-02 00:30:00,32.4,14.4,30.12,NNW,337,1.0,5.0,47,0.00,,CLR,0.00,VWS V14.01,2013-04-02 04:30:00,
2013-04-02 00:35:00,32.2,14.7,30.12,NNW,337,2.0,5.0,48,0.00,,CLR,0.00,VWS V14.01,2013-04-02 04:35:00,
2013-04-02 00:40:00,31.9,14.9,30.13,NNW,329,1.0,3.0,49,0.00,,CLR,0.00,VWS V14.01,2013-04-02 04:40:00,
2013-04-02 00:45:00,31.8,14.8,30.13,NNW,339,1.0,8.0,49,0.00,,CLR,0.00,VWS V14.01,2013-04-02 04:45:00,
2013-04-02 00:50:00,31.6,14.6,30.13,NNW,336,10.0,10.0,49,0.00,,CLR,0.00,VWS V14.01,2013-04-02 04:50:00,
2013-04-02 00:56:00,31.6,14.2,30.13,NNW,335,10.0,13.0,48,0.00,,CLR,0.00,VWS V14.01,2013-04-02 04:56:00,
2013-04-02 01:00:00,31.5,14.6,30.13,NNW,347,6.0,12.0,49,0.00,,OVC100,0.00,VWS V14.01,2013-04-02 05:00:00,
2013-04-02 01:01:00,31.5,14.1,30.13,NNW,330,12.0,12.0,48,0.00,,CLR,0.00,VWS V14.01,2013-04-02 05:01:00,
2013-04-02 01:06:00,31.3,14.4,30.13,NNW,332,2.0,12.0,49,0.00,,CLR,0.00,VWS V14.01,2013-04-02 05:06:00,
2013-04-02 01:11:00,31.2,14.3,30.14,NNW,337,2.0,8.0,49,0.00,,CLR,0.00,VWS V14.01,2013-04-02 05:11:00,
2013-04-02 01:15:00,31.0,14.6,30.14,North,0,3.0,8.0,50,0.00,,OVC100,0.00,VWS V14.01,2013-04-02 05:15:00,
2013-04-02 01:16:00,31.0,14.1,30.14,North,353,0.0,8.0,49,0.00,,CLR,0.00,VWS V14.01,2013-04-02 05:16:00,
2013-04-02 01:21:00,30.7,14.3,30.14,NNW,344,7.0,11.0,50,0.00,,CLR,0.00,VWS V14.01,2013-04-02 05:21:00,
2013-04-02 01:26:00,30.7,14.3,30.14,NNW,344,2.0,11.0,50,0.00,,CLR,0.00,VWS V14.01,2013-04-02 05:26:00,
2013-04-02 01:30:00,30.6,14.6,30.14,NNW,329,2.0,7.0,51,0.00,,OVC100,0.00,VWS V14.01,2013-04-02 05:30:00,
2013-04-02 01:31:00,30.4,14.4,30.14,NNW,347,5.0,7.0,51,0.00,,CLR,0.00,VWS V14.01,2013-04-02 05:31:00,
2013-04-02 01:36:00,30.3,14.4,30.14,NW,319,2.0,5.0,51,0.00,,CLR,0.00,VWS V14.01,2013-04-02 05:36:00,
2013-04-02 01:42:00,30.1,14.2,30.14,NNW,344,1.0,6.0,51,0.00,,CLR,0.00,VWS V14.01,2013-04-02 05:42:00,
2013-04-02 01:45:00,30.1,14.6,30.14,NNW,337,1.0,6.0,52,0.00,,OVC100,0.00,VWS V14.01,2013-04-02 05:45:00,
2013-04-02 01:47:00,30.1,14.6,30.14,North,0,0.0,6.0,52,0.00,,CLR,0.00,VWS V14.01,2013-04-02 05:47:00,
2013-04-02 01:52:00,29.8,14.3,30.14,North,357,2.0,4.0,52,0.00,,CLR,0.00,VWS V14.01,2013-04-02 05:52:00,
2013-04-02 01:57:00,29.7,14.7,30.14,North,359,3.0,4.0,53,0.00,,CLR,0.00,VWS V14.01,2013-04-02 05:57:00,
2013-04-02 02:00:00,29.7,14.2,30.14,North,0,3.0,7.0,52,0.00,,OVC100,0.00,VWS V14.01,2013-04-02 06:00:00,
2013-04-02 02:02:00,29.7,14.2,30.14,NNW,333,6.0,7.0,52,0.00,,CLR,0.00,VWS V14.01,2013-04-02 06:02:00,
2013-04-02 02:07:00,29.5,14.5,30.15,NW,316,2.0,8.0,53,0.00,,CLR,0.00,VWS V14.01,2013-04-02 06:07:00,
2013-04-02 02:12:00,29.5,14.1,30.15,North,0,4.0,10.0,52,0.00,,CLR,0.00,VWS V14.01,2013-04-02 06:12:00,
2013-04-02 02:15:00,29.5,14.1,30.15,NNW,347,10.0,10.0,52,0.00,,OVC100,0.00,VWS V14.01,2013-04-02 06:15:00,
2013-04-02 02:17:00,29.5,14.1,30.15,NNW,340,6.0,10.0,52,0.00,,CLR,0.00,VWS V14.01,2013-04-02 06:17:00,
2013-04-02 02:22:00,29.4,14.0,30.15,NNW,347,2.0,14.0,52,0.00,,CLR,0.00,VWS V14.01,2013-04-02 06:22:00,
2013-04-02 02:27:00,29.4,14.0,30.15,North,354,6.0,13.0,52,0.00,,CLR,0.00,VWS V14.01,2013-04-02 06:27:00,
2013-04-02 02:30:00,29.3,14.3,30.15,NNW,339,5.0,13.0,53,0.00,,OVC100,0.00,VWS V14.01,2013-04-02 06:30:00,
2013-04-02 02:32:00,29.1,14.1,30.15,North,356,3.0,10.0,53,0.00,,CLR,0.00,VWS V14.01,2013-04-02 06:32:00,
2013-04-02 02:37:00,29.0,14.0,30.15,North,354,2.0,8.0,53,0.00,,CLR,0.00,VWS V14.01,2013-04-02 06:37:00,
2013-04-02 02:42:00,28.8,13.8,30.15,North,354,1.0,5.0,53,0.00,,CLR,0.00,VWS V14.01,2013-04-02 06:42:00,
2013-04-02 02:45:00,28.7,14.2,30.15,North,354,1.0,5.0,54,0.00,,OVC100,0.00,VWS V14.01,2013-04-02 06:45:00,
2013-04-02 02:47:00,28.5,14.0,30.15,NNW,340,3.0,5.0,54,0.00,,FEW060,0.00,VWS V14.01,2013-04-02 06:47:00,
2013-04-02 02:52:00,28.4,13.9,30.15,NNW,339,1.0,6.0,54,0.00,,FEW060,0.00,VWS V14.01,2013-04-02 06:52:00,
2013-04-02 02:57:00,28.4,13.9,30.15,NNW,333,2.0,7.0,54,0.00,,FEW060,0.00,VWS V14.01,2013-04-02 06:57:00,
2013-04-02 03:00:00,28.2,13.7,30.15,North,359,0.0,7.0,54,0.00,,OVC100,0.00,VWS V14.01,2013-04-02 07:00:00,
2013-04-02 03:02:00,28.2,13.7,30.15,North,352,5.0,7.0,54,0.00,,FEW060,0.00,VWS V14.01,2013-04-02 07:02:00,
2013-04-02 03:07:00,28.2,14.1,30.15,North,350,1.0,7.0,55,0.00,,CLR,0.00,VWS V14.01,2013-04-02 07:07:00,
2013-04-02 03:12:00,28.2,14.1,30.15,NNW,332,4.0,6.0,55,0.00,,CLR,0.00,VWS V14.01,2013-04-02 07:12:00,
2013-04-02 03:15:00,28.2,13.7,30.15,NNW,333,5.0,8.0,54,0.00,,OVC100,0.00,VWS V14.01,2013-04-02 07:15:00,
2013-04-02 03:17:00,28.2,13.7,30.15,NNW,339,3.0,8.0,54,0.00,,CLR,0.00,VWS V14.01,2013-04-02 07:17:00,
2013-04-02 03:22:00,28.2,13.7,30.15,NNW,337,3.0,7.0,54,0.00,,CLR,0.00,VWS V14.01,2013-04-02 07:22:00,
2013-04-02 03:28:00,28.2,13.7,30.15,North,359,2.0,8.0,54,0.00,,CLR,0.00,VWS V14.01,2013-04-02 07:28:00,
2013-04-02 03:30:00,28.2,13.7,30.15,North,350,0.0,8.0,54,0.00,,OVC100,0.00,VWS V14.01,2013-04-02 07:30:00,
2013-04-02 03:33:00,28.2,13.7,30.15,NNW,332,1.0,8.0,54,0.00,,CLR,0.00,VWS V14.01,2013-04-02 07:33:00,
2013-04-02 03:38:00,28.1,13.6,30.15,NNW,335,0.0,7.0,54,0.00,,CLR,0.00,VWS V14.01,2013-04-02 07:38:00,
2013-04-02 03:43:00,27.9,13.4,30.15,North,354,0.0,6.0,54,0.00,,CLR,0.00,VWS V14.01,2013-04-02 07:43:00,
2013-04-02 03:45:00,27.9,13.4,30.15,NW,316,1.0,6.0,54,0.00,,OVC100,0.00,VWS V14.01,2013-04-02 07:45:00,
2013-04-02 03:48:00,27.8,13.3,30.15,NNW,330,4.0,5.0,54,0.00,,CLR,0.00,VWS V14.01,2013-04-02 07:48:00,
2013-04-02 03:53:00,27.6,13.1,30.15,NNW,332,1.0,4.0,54,0.00,,CLR,0.00,VWS V14.01,2013-04-02 07:53:00,
2013-04-02 03:58:00,27.5,13.5,30.15,NNW,342,8.0,8.0,55,0.00,,CLR,0.00,VWS V14.01,2013-04-02 07:58:00,
2013-04-02 04:00:00,27.5,13.5,30.15,NNW,332,0.0,8.0,55,0.00,,OVC100,0.00,VWS V14.01,2013-04-02 08:00:00,
2013-04-02 04:03:00,27.5,13.5,30.15,NNW,343,2.0,8.0,55,0.00,,BKN055,0.00,VWS V14.01,2013-04-02 08:03:00,
2013-04-02 04:08:00,27.5,13.5,30.15,NNW,328,0.0,4.0,55,0.00,,BKN055,0.00,VWS V14.01,2013-04-02 08:08:00,
2013-04-02 04:13:00,27.3,13.3,30.15,NNW,329,0.0,5.0,55,0.00,,BKN055,0.00,VWS V14.01,2013-04-02 08:13:00,
2013-04-02 04:15:00,27.3,13.3,30.16,North,350,2.0,5.0,55,0.00,,OVC100,0.00,VWS V14.01,2013-04-02 08:15:00,
2013-04-02 04:18:00,27.2,13.2,30.16,North,350,0.0,3.0,55,0.00,,BKN055,0.00,VWS V14.01,2013-04-02 08:18:00,
2013-04-02 04:23:00,27.0,13.0,30.16,North,350,0.0,2.0,55,0.00,,BKN055,0.00,VWS V14.01,2013-04-02 08:23:00,
2013-04-02 04:28:00,26.9,13.3,30.16,North,350,0.0,0.0,56,0.00,,BKN055,0.00,VWS V14.01,2013-04-02 08:28:00,
2013-04-02 04:30:00,26.9,13.3,30.16,North,350,0.0,0.0,56,0.00,,OVC100,0.00,VWS V14.01,2013-04-02 08:30:00,
2013-04-02 04:33:00,26.7,13.1,30.16,North,350,0.0,0.0,56,0.00,,BKN055,0.00,VWS V14.01,2013-04-02 08:33:00,
2013-04-02 04:38:00,26.7,13.1,30.16,North,350,0.0,0.0,56,0.00,,BKN055,0.00,VWS V14.01,2013-04-02 08:38:00,
2013-04-02 04:43:00,26.6,13.0,30.16,North,350,0.0,0.0,56,0.00,,BKN055,0.00,VWS V14.01,2013-04-02 08:43:00,
2013-04-02 04:45:00,26.6,12.6,30.16,North,350,0.0,0.0,55,0.00,,OVC100,0.00,VWS V14.01,2013-04-02 08:45:00,
2013-04-02 04:48:00,26.6,12.6,30.16,North,350,1.0,2.0,55,0.00,,BKN055,0.00,VWS V14.01,2013-04-02 08:48:00,
2013-04-02 04:54:00,26.4,12.4,30.16,North,350,0.0,2.0,55,0.00,,BKN055,0.00,VWS V14.01,2013-04-02 08:54:00,
2013-04-02 04:59:00,26.4,12.8,30.16,North,350,0.0,0.0,56,0.00,,BKN055,0.00,VWS V14.01,2013-04-02 08:59:00,
2013-04-02 05:00:00,26.4,12.8,30.16,North,350,0.0,0.0,56,0.00,,OVC100,0.00,VWS V14.01,2013-04-02 09:00:00,
2013-04-02 05:04:00,26.4,12.8,30.16,North,350,0.0,0.0,56,0.00,,BKN055,0.00,VWS V14.01,2013-04-02 09:04:00,
2013-04-02 05:09:00,26.3,12.8,30.17,North,350,0.0,0.0,56,0.00,,BKN055,0.00,VWS V14.01,2013-04-02 09:09:00,
2013-04-02 05:14:00,26.1,12.6,30.17,NNW,347,0.0,2.0,56,0.00,,BKN055,0.00,VWS V14.01,2013-04-02 09:14:00,
2013-04-02 05:15:00,26.1,12.6,30.17,NNW,347,0.0,2.0,56,0.00,,OVC100,0.00,VWS V14.01,2013-04-02 09:15:00,
2013-04-02 05:19:00,26.0,12.5,30.17,NNW,347,0.0,0.0,56,0.00,,SCT055,0.00,VWS V14.01,2013-04-02 09:19:00,
2013-04-02 05:24:00,26.0,12.5,30.17,NNW,347,0.0,0.0,56,0.00,,SCT055,0.00,VWS V14.01,2013-04-02 09:24:00,
2013-04-02 05:29:00,25.8,12.3,30.17,NNW,347,0.0,0.0,56,0.00,,SCT055,0.00,VWS V14.01,2013-04-02 09:29:00,
2013-04-02 05:30:00,25.8,12.3,30.17,NNW,347,0.0,0.0,56,0.00,,OVC100,0.00,VWS V14.01,2013-04-02 09:30:00,
2013-04-02 05:34:00,25.7,12.2,30.17,NNW,347,0.0,0.0,56,0.00,,SCT055,0.00,VWS V14.01,2013-04-02 09:34:00,
2013-04-02 05:39:00,25.6,12.5,30.18,NNW,347,0.0,0.0,57,0.00,,SCT055,0.00,VWS V14.01,2013-04-02 09:39:00,
2013-04-02 05:44:00,25.4,12.3,30.18,NNW,347,0.0,0.0,57,0.00,,SCT055,0.00,VWS V14.01,2013-04-02 09:44:00,
2013-04-02 05:45:00,25.4,12.3,30.18,NNW,347,0.0,0.0,57,0.00,,OVC100,0.00,VWS V14.01,2013-04-02 09:45:00,
2013-04-02 05:49:00,25.4,12.7,30.18,NNW,347,0.0,1.0,58,0.00,,SCT055,0.00,VWS V14.01,2013-04-02 09:49:00,
2013-04-02 05:54:00,25.4,12.3,30.18,NNW,347,0.0,1.0,57,0.00,,SCT055,0.00,VWS V14.01,2013-04-02 09:54:00,
2013-04-02 05:59:00,25.4,12.3,30.19,NNW,347,0.0,0.0,57,0.00,,SCT055,0.00,VWS V14.01,2013-04-02 09:59:00,
2013-04-02 06:00:00,25.4,12.3,30.19,NNW,347,0.0,0.0,57,0.00,,OVC100,0.00,VWS V14.01,2013-04-02 10:00:00,
2013-04-02 06:04:00,25.3,12.6,30.19,NNW,347,0.0,0.0,58,0.00,,SCT055,0.00,VWS V14.01,2013-04-02 10:04:00,
2013-04-02 06:09:00,25.3,12.6,30.19,NNW,347,0.0,0.0,58,0.00,,SCT055,0.00,VWS V14.01,2013-04-02 10:09:00,
2013-04-02 06:14:00,25.1,12.4,30.20,NNW,347,0.0,0.0,58,0.00,,SCT055,0.00,VWS V14.01,2013-04-02 10:14:00,
2013-04-02 06:15:00,25.1,12.4,30.20,NNW,347,0.0,0.0,58,0.00,,OVC100,0.00,VWS V14.01,2013-04-02 10:15:00,
2013-04-02 06:19:00,25.1,12.4,30.20,NNW,347,0.0,0.0,58,0.00,,CLR,0.00,VWS V14.01,2013-04-02 10:19:00,
2013-04-02 06:24:00,25.1,12.4,30.20,NNW,347,0.0,0.0,58,0.00,,CLR,0.00,VWS V14.01,2013-04-02 10:24:00,
2013-04-02 06:29:00,25.0,12.3,30.20,NNW,347,0.0,0.0,58,0.00,,CLR,0.00,VWS V14.01,2013-04-02 10:29:00,
2013-04-02 06:30:00,25.0,12.3,30.20,NNW,347,0.0,0.0,58,0.00,,OVC100,0.00,VWS V14.01,2013-04-02 10:30:00,
2013-04-02 06:34:00,25.0,12.3,30.20,NNW,347,0.0,0.0,58,0.00,,CLR,0.00,VWS V14.01,2013-04-02 10:34:00,
2013-04-02 06:39:00,25.0,12.3,30.21,NNW,347,0.0,0.0,58,0.00,,CLR,0.00,VWS V14.01,2013-04-02 10:39:00,
2013-04-02 06:44:00,24.8,12.5,30.21,NNW,347,0.0,0.0,59,0.00,,CLR,0.00,VWS V14.01,2013-04-02 10:44:00,
2013-04-02 06:45:00,24.8,12.5,30.21,NNW,347,0.0,0.0,59,0.00,,OVC100,0.00,VWS V14.01,2013-04-02 10:45:00,
2013-04-02 06:49:00,24.8,12.1,30.21,NNW,347,0.0,0.0,58,0.00,,CLR,0.00,VWS V14.01,2013-04-02 10:49:00,
2013-04-02 06:54:00,24.7,12.0,30.22,NNW,343,0.0,2.0,58,0.00,,CLR,0.00,VWS V14.01,2013-04-02 10:54:00,
2013-04-02 07:00:00,24.7,12.4,30.22,NNW,343,0.0,0.0,59,0.00,,CLR,0.00,VWS V14.01,2013-04-02 11:00:00,
2013-04-02 07:05:00,24.7,12.4,30.22,NNW,343,0.0,0.0,59,0.00,,CLR,0.00,VWS V14.01,2013-04-02 11:05:00,
2013-04-02 07:10:00,24.7,12.4,30.23,NNW,343,0.0,0.0,59,0.00,,CLR,0.00,VWS V14.01,2013-04-02 11:10:00,
2013-04-02 07:15:00,24.7,12.4,30.23,NNW,343,0.0,0.0,59,0.00,,CLR,0.00,VWS V14.01,2013-04-02 11:15:00,
2013-04-02 07:20:00,24.7,12.4,30.23,NNW,343,0.0,0.0,59,0.00,,CLR,0.00,VWS V14.01,2013-04-02 11:20:00,
2013-04-02 07:25:00,24.7,12.4,30.23,NNW,343,0.0,1.0,59,0.00,,CLR,0.00,VWS V14.01,2013-04-02 11:25:00,
2013-04-02 07:30:00,24.8,12.5,30.23,NNW,343,0.0,0.0,59,0.00,,CLR,0.00,VWS V14.01,2013-04-02 11:30:00,
2013-04-02 07:35:00,25.1,12.8,30.24,NNW,343,0.0,0.0,59,0.00,,CLR,0.00,VWS V14.01,2013-04-02 11:35:00,
2013-04-02 07:40:00,25.4,12.7,30.24,NNW,343,0.0,1.0,58,0.00,,CLR,0.00,VWS V14.01,2013-04-02 11:40:00,
2013-04-02 07:45:00,25.7,13.0,30.24,NNW,343,0.0,0.0,58,0.00,,CLR,0.00,VWS V14.01,2013-04-02 11:45:00,
2013-04-02 07:50:00,26.0,13.3,30.24,NNW,343,0.0,0.0,58,0.00,,CLR,0.00,VWS V14.01,2013-04-02 11:50:00,
2013-04-02 07:55:00,26.6,13.8,30.24,NNW,343,0.0,0.0,58,0.00,,CLR,0.00,VWS V14.01,2013-04-02 11:55:00,
2013-04-02 08:00:00,27.0,13.8,30.24,NNW,343,0.0,1.0,57,0.00,,CLR,0.00,VWS V14.01,2013-04-02 12:00:00,
2013-04-02 08:05:00,27.6,13.6,30.25,NNW,343,0.0,1.0,55,0.00,,CLR,0.00,VWS V14.01,2013-04-02 12:05:00,
2013-04-02 08:10:00,28.2,14.1,30.25,NW,312,0.0,3.0,55,0.00,,CLR,0.00,VWS V14.01,2013-04-02 12:10:00,
2013-04-02 08:15:00,28.8,13.8,30.25,NW,312,0.0,3.0,53,0.00,,CLR,0.00,VWS V14.01,2013-04-02 12:15:00,
2013-04-02 08:20:00,29.3,14.3,30.25,NW,308,0.0,4.0,53,0.00,,CLR,0.00,VWS V14.01,2013-04-02 12:20:00,
2013-04-02 08:25:00,29.8,14.3,30.25,NW,308,0.0,1.0,52,0.00,,CLR,0.00,VWS V14.01,2013-04-02 12:25:00,
2013-04-02 08:30:00,30.3,14.4,30.25,WNW,287,5.0,5.0,51,0.00,,CLR,0.00,VWS V14.01,2013-04-02 12:30:00,
2013-04-02 08:35:00,30.7,14.7,30.25,WNW,291,2.0,6.0,51,0.00,,CLR,0.00,VWS V14.01,2013-04-02 12:35:00,
2013-04-02 08:40:00,31.0,14.1,30.25,WNW,295,3.0,5.0,49,0.00,,CLR,0.00,VWS V14.01,2013-04-02 12:40:00,
2013-04-02 08:45:00,31.3,14.4,30.25,NW,318,0.0,5.0,49,0.00,,CLR,0.00,VWS V14.01,2013-04-02 12:45:00,
2013-04-02 08:50:00,31.5,15.0,30.25,West,275,0.0,6.0,50,0.00,,CLR,0.00,VWS V14.01,2013-04-02 12:50:00,
2013-04-02 08:55:00,31.8,15.3,30.26,WNW,284,0.0,6.0,50,0.00,,CLR,0.00,VWS V14.01,2013-04-02 12:55:00,
2013-04-02 09:00:00,32.2,14.7,30.26,NW,319,3.0,7.0,48,0.00,,CLR,0.00,VWS V14.01,2013-04-02 13:00:00,
2013-04-02 09:06:00,32.5,15.0,30.26,West,278,1.0,7.0,48,0.00,,CLR,0.00,VWS V14.01,2013-04-02 13:06:00,
2013-04-02 09:11:00,32.9,14.9,30.26,West,277,0.0,3.0,47,0.00,,CLR,0.00,VWS V14.01,2013-04-02 13:11:00,
2013-04-02 09:15:00,33.4,15.4,30.26,West,270,1.0,3.0,47,0.00,,OVC100,0.00,VWS V14.01,2013-04-02 13:15:00,
2013-04-02 09:16:00,33.4,15.4,30.26,West,281,0.0,3.0,47,0.00,,CLR,0.00,VWS V14.01,2013-04-02 13:16:00,
2013-04-02 09:21:00,34.0,13.9,30.26,WNW,298,2.0,6.0,43,0.00,,CLR,0.00,VWS V14.01,2013-04-02 13:21:00,
2013-04-02 09:26:00,34.0,13.9,30.26,WNW,287,2.0,6.0,43,0.00,,CLR,0.00,VWS V14.01,2013-04-02 13:26:00,
2013-04-02 09:30:00,34.1,14.0,30.26,NW,320,0.0,6.0,43,0.00,,OVC100,0.00,VWS V14.01,2013-04-02 13:30:00,
2013-04-02 09:31:00,34.3,15.2,30.26,NW,309,0.0,6.0,45,0.00,,CLR,0.00,VWS V14.01,2013-04-02 13:31:00,
2013-04-02 09:36:00,34.9,14.1,30.26,NNW,335,1.0,5.0,42,0.00,,CLR,0.00,VWS V14.01,2013-04-02 13:36:00,
2013-04-02 09:41:00,34.7,13.4,30.26,WNW,291,2.0,6.0,41,0.00,,CLR,0.00,VWS V14.01,2013-04-02 13:41:00,
2013-04-02 09:45:00,34.7,14.0,30.26,West,270,0.0,6.0,42,0.00,,OVC100,0.00,VWS V14.01,2013-04-02 13:45:00,
2013-04-02 09:47:00,34.9,14.1,30.26,WNW,302,1.0,6.0,42,0.00,,CLR,0.00,VWS V14.01,2013-04-02 13:47:00,
2013-04-02 09:52:00,35.5,14.7,30.26,West,272,6.0,8.0,42,0.00,,CLR,0.00,VWS V14.01,2013-04-02 13:52:00,
2013-04-02 09:57:00,35.8,15.5,30.26,West,280,0.0,8.0,43,0.00,,CLR,0.00,VWS V14.01,2013-04-02 13:57:00,
2013-04-02 10:00:00,35.6,14.8,30.27,NNW,328,0.0,6.0,42,0.00,,OVC100,0.00,VWS V14.01,2013-04-02 14:00:00,
2013-04-02 10:02:00,35.8,15.5,30.27,WSW,241,2.0,6.0,43,0.00,,CLR,0.00,VWS V14.01,2013-04-02 14:02:00,
2013-04-02 10:07:00,35.8,14.4,30.27,SSW,206,6.0,7.0,41,0.00,,CLR,0.00,VWS V14.01,2013-04-02 14:07:00,
2013-04-02 10:12:00,35.8,15.5,30.27,West,268,0.0,7.0,43,0.00,,CLR,0.00,VWS V14.01,2013-04-02 14:12:00,
2013-04-02 10:15:00,36.3,16.5,30.27,West,268,0.0,5.0,44,0.00,,OVC100,0.00,VWS V14.01,2013-04-02 14:15:00,
2013-04-02 10:17:00,36.8,16.4,30.27,NNW,336,2.0,5.0,43,0.00,,CLR,0.00,VWS V14.01,2013-04-02 14:17:00,
2013-04-02 10:22:00,36.9,16.0,30.27,SW,226,2.0,9.0,42,0.00,,CLR,0.00,VWS V14.01,2013-04-02 14:22:00,
2013-04-02 10:27:00,36.5,16.7,30.27,WNW,301,1.0,7.0,44,0.00,,CLR,0.00,VWS V14.01,2013-04-02 14:27:00,
2013-04-02 10:30:00,36.6,17.3,30.27,West,265,1.0,7.0,45,0.00,,OVC100,0.00,VWS V14.01,2013-04-02 14:30:00,
2013-04-02 10:32:00,36.6,16.2,30.27,West,278,7.0,7.0,43,0.00,,CLR,0.00,VWS V14.01,2013-04-02 14:32:00,
2013-04-02 10:37:00,36.8,17.0,30.27,WSW,251,0.0,7.0,44,0.00,,CLR,0.00,VWS V14.01,2013-04-02 14:37:00,
2013-04-02 10:42:00,36.5,16.7,30.27,WNW,294,1.0,7.0,44,0.00,,CLR,0.00,VWS V14.01,2013-04-02 14:42:00,
2013-04-02 10:45:00,36.0,16.2,30.27,West,281,4.0,7.0,44,0.00,,OVC100,0.00,VWS V14.01,2013-04-02 14:45:00,
2013-04-02 10:47:00,35.9,15.6,30.27,NNW,329,1.0,7.0,43,0.00,,CLR,0.00,VWS V14.01,2013-04-02 14:47:00,
2013-04-02 10:52:00,36.8,15.3,30.27,East,80,0.0,6.0,41,0.00,,CLR,0.00,VWS V14.01,2013-04-02 14:52:00,
2013-04-02 10:57:00,37.2,16.8,30.27,NNW,342,4.0,9.0,43,0.00,,CLR,0.00,VWS V14.01,2013-04-02 14:57:00,
2013-04-02 11:00:00,36.9,15.4,30.27,NNW,346,4.0,9.0,41,0.00,,OVC100,0.00,VWS V14.01,2013-04-02 15:00:00,
2013-04-02 11:02:00,36.6,17.3,30.27,WNW,301,3.0,9.0,45,0.00,,CLR,0.00,VWS V14.01,2013-04-02 15:02:00,
2013-04-02 11:07:00,36.5,15.6,30.28,West,265,0.0,7.0,42,0.00,,CLR,0.00,VWS V14.01,2013-04-02 15:07:00,
2013-04-02 11:12:00,36.0,15.7,30.28,West,272,6.0,6.0,43,0.00,,CLR,0.00,VWS V14.01,2013-04-02 15:12:00,
2013-04-02 11:15:00,35.6,15.3,30.28,SW,223,2.0,11.0,43,0.00,,OVC100,0.00,VWS V14.01,2013-04-02 15:15:00,
2013-04-02 11:17:00,35.2,15.5,30.28,WSW,251,5.0,11.0,44,0.00,,CLR,0.00,VWS V14.01,2013-04-02 15:17:00,
2013-04-02 11:22:00,35.3,18.1,30.28,NW,305,2.0,12.0,49,0.00,,CLR,0.00,VWS V14.01,2013-04-02 15:22:00,
2013-04-02 11:27:00,35.9,17.1,30.28,SSW,203,3.0,7.0,46,0.00,,CLR,0.00,VWS V14.01,2013-04-02 15:27:00,
2013-04-02 11:30:00,35.9,16.6,30.28,SSW,193,3.0,8.0,45,0.00,,OVC100,0.00,VWS V14.01,2013-04-02 15:30:00,
2013-04-02 11:32:00,35.9,17.1,30.28,SW,233,2.0,8.0,46,0.00,,BKN047,0.00,VWS V14.01,2013-04-02 15:32:00,
2013-04-02 11:38:00,36.0,17.7,30.28,WSW,250,1.0,8.0,47,0.00,,BKN047,0.00,VWS V14.01,2013-04-02 15:38:00,
2013-04-02 11:43:00,36.3,17.0,30.28,West,275,6.0,12.0,45,0.00,,BKN047,0.00,VWS V14.01,2013-04-02 15:43:00,
2013-04-02 11:45:00,36.5,17.7,30.28,WNW,292,1.0,12.0,46,0.00,,OVC100,0.00,VWS V14.01,2013-04-02 15:45:00,
2013-04-02 11:48:00,36.3,17.0,30.28,WNW,285,2.0,12.0,45,0.00,,BKN047,0.00,VWS V14.01,2013-04-02 15:48:00,
2013-04-02 11:53:00,36.6,17.8,30.28,SW,217,5.0,8.0,46,0.00,,BKN047,0.00,VWS V14.01,2013-04-02 15:53:00,
2013-04-02 11:58:00,37.3,16.9,30.28,WNW,285,2.0,12.0,43,0.00,,BKN047,0.00,VWS V14.01,2013-04-02 15:58:00,
2013-04-02 12:00:00,37.8,18.9,30.28,WNW,284,8.0,12.0,46,0.00,,OVC100,0.00,VWS V14.01,2013-04-02 16:00:00,
2013-04-02 12:03:00,37.9,16.3,30.28,WNW,288,5.0,10.0,41,0.00,,BKN047,0.00,VWS V14.01,2013-04-02 16:03:00,
2013-04-02 12:08:00,39.1,18.5,30.27,West,265,6.0,13.0,43,0.00,,BKN047,0.00,VWS V14.01,2013-04-02 16:08:00,
2013-04-02 12:13:00,38.8,18.2,30.28,NW,319,2.0,13.0,43,0.00,,BKN047,0.00,VWS V14.01,2013-04-02 16:13:00,
2013-04-02 12:15:00,38.6,17.0,30.27,WNW,294,6.0,13.0,41,0.00,,OVC100,0.00,VWS V14.01,2013-04-02 16:15:00,
2013-04-02 12:18:00,38.8,17.1,30.27,WNW,289,5.0,10.0,41,0.00,,BKN047,0.00,VWS V14.01,2013-04-02 16:18:00,
2013-04-02 12:24:00,38.2,17.1,30.27,West,280,3.0,10.0,42,0.00,,BKN047,0.00,VWS V14.01,2013-04-02 16:24:00,
2013-04-02 12:29:00,38.0,18.0,30.27,WSW,248,6.0,10.0,44,0.00,,BKN047,0.00,VWS V14.01,2013-04-02 16:29:00,
2013-04-02 12:30:00,37.9,16.9,30.27,NW,316,4.0,11.0,42,0.00,,OVC100,0.00,VWS V14.01,2013-04-02 16:30:00,
2013-04-02 12:34:00,37.8,16.2,30.27,SSW,202,6.0,17.0,41,0.00,,BKN047,0.00,VWS V14.01,2013-04-02 16:34:00,
2013-04-02 12:39:00,38.6,16.4,30.27,NNW,329,10.0,17.0,40,0.00,,BKN047,0.00,VWS V14.01,2013-04-02 16:39:00,
2013-04-02 12:44:00,39.2,18.0,30.27,West,277,2.0,17.0,42,0.00,,BKN047,0.00,VWS V14.01,2013-04-02 16:44:00,
2013-04-02 12:45:00,39.2,16.9,30.27,WSW,254,2.0,17.0,40,0.00,,OVC100,0.00,VWS V14.01,2013-04-02 16:45:00,
2013-04-02 12:49:00,38.8,16.6,30.27,WSW,244,11.0,16.0,40,0.00,,BKN047,0.00,VWS V14.01,2013-04-02 16:49:00,
2013-04-02 12:54:00,39.8,18.0,30.26,SSW,202,7.0,13.0,41,0.00,,BKN047,0.00,VWS V14.01,2013-04-02 16:54:00,
2013-04-02 12:59:00,39.1,18.0,30.26,SSW,209,0.0,16.0,42,0.00,,BKN047,0.00,VWS V14.01,2013-04-02 16:59:00,
2013-04-02 13:00:00,39.1,18.0,30.26,SSW,208,3.0,16.0,42,0.00,,OVC100,0.00,VWS V14.01,2013-04-02 17:00:00,
2013-04-02 13:04:00,39.2,18.6,30.26,West,263,3.0,13.0,43,0.00,,BKN047,0.00,VWS V14.01,2013-04-02 17:04:00,
2013-04-02 13:10:00,39.9,19.2,30.26,West,267,3.0,14.0,43,0.00,,BKN047,0.00,VWS V14.01,2013-04-02 17:10:00,
2013-04-02 13:15:00,39.8,17.5,30.26,WNW,289,0.0,14.0,40,0.00,,BKN047,0.00,VWS V14.01,2013-04-02 17:15:00,
2013-04-02 13:20:00,39.9,17.0,30.26,West,274,11.0,13.0,39,0.00,,BKN047,0.00,VWS V14.01,2013-04-02 17:20:00,
2013-04-02 13:25:00,40.6,17.0,30.25,WSW,244,6.0,12.0,38,0.00,,BKN047,0.00,VWS V14.01,2013-04-02 17:25:00,
2013-04-02 13:30:00,40.1,17.1,30.25,WSW,250,2.0,13.0,39,0.00,,BKN047,0.00,VWS V14.01,2013-04-02 17:30:00,
2013-04-02 13:35:00,40.9,17.9,30.25,WSW,251,0.0,8.0,39,0.00,,BKN047,0.00,VWS V14.01,2013-04-02 17:35:00,
2013-04-02 13:40:00,41.6,17.3,30.24,NNW,340,0.0,8.0,37,0.00,,BKN047,0.00,VWS V14.01,2013-04-02 17:40:00,
2013-04-02 13:45:00,41.3,17.0,30.24,West,274,4.0,19.0,37,0.00,,BKN047,0.00,VWS V14.01,2013-04-02 17:45:00,
2013-04-02 13:50:00,41.3,18.2,30.24,West,275,10.0,17.0,39,0.00,,BKN047,0.00,VWS V14.01,2013-04-02 17:50:00,
2013-04-02 13:55:00,42.1,17.1,30.24,WSW,256,1.0,17.0,36,0.00,,BKN047,0.00,VWS V14.01,2013-04-02 17:55:00,
2013-04-02 14:00:00,41.6,18.5,30.24,NW,315,6.0,11.0,39,0.00,,BKN047,0.00,VWS V14.01,2013-04-02 18:00:00,
2013-04-02 14:05:00,40.9,17.3,30.24,NNW,340,0.0,12.0,38,0.00,,BKN047,0.00,VWS V14.01,2013-04-02 18:05:00,
2013-04-02 14:11:00,40.3,16.7,30.24,WSW,241,2.0,12.0,38,0.00,,BKN047,0.00,VWS V14.01,2013-04-02 18:11:00,
2013-04-02 14:15:00,40.6,18.2,30.23,NNW,328,3.0,12.0,40,0.00,,OVC100,0.00,VWS V14.01,2013-04-02 18:15:00,
2013-04-02 14:16:00,40.9,19.0,30.23,WNW,298,6.0,10.0,41,0.00,,BKN047,0.00,VWS V14.01,2013-04-02 18:16:00,
2013-04-02 14:21:00,41.9,18.2,30.23,NW,322,7.0,12.0,38,0.00,,BKN047,0.00,VWS V14.01,2013-04-02 18:21:00,
2013-04-02 14:26:00,42.2,17.8,30.23,WNW,288,1.0,13.0,37,0.00,,BKN047,0.00,VWS V14.01,2013-04-02 18:26:00,
2013-04-02 14:30:00,41.6,16.6,30.23,West,260,1.0,13.0,36,0.00,,OVC100,0.00,VWS V14.01,2013-04-02 18:30:00,
2013-04-02 14:31:00,41.6,18.5,30.23,WNW,289,2.0,11.0,39,0.00,,OVC055,0.00,VWS V14.01,2013-04-02 18:31:00,
2013-04-02 14:36:00,41.9,19.4,30.22,SW,226,1.0,11.0,40,0.00,,OVC055,0.00,VWS V14.01,2013-04-02 18:36:00,
2013-04-02 14:42:00,42.2,15.9,30.23,WSW,257,3.0,15.0,34,0.00,,OVC055,0.00,VWS V14.01,2013-04-02 18:42:00,
2013-04-02 14:45:00,42.1,17.7,30.22,West,263,9.0,13.0,37,0.00,,OVC100,0.00,VWS V14.01,2013-04-02 18:45:00,
2013-04-02 14:47:00,41.8,16.2,30.22,WNW,284,5.0,12.0,35,0.00,,OVC055,0.00,VWS V14.01,2013-04-02 18:47:00,
2013-04-02 14:52:00,41.9,16.9,30.22,West,272,7.0,13.0,36,0.00,,OVC055,0.00,VWS V14.01,2013-04-02 18:52:00,
2013-04-02 14:57:00,41.3,16.4,30.22,West,277,5.0,13.0,36,0.00,,OVC055,0.00,VWS V14.01,2013-04-02 18:57:00,
2013-04-02 15:00:00,41.8,18.1,30.21,WNW,299,0.0,10.0,38,0.00,,OVC100,0.00,VWS V14.01,2013-04-02 19:00:00,
2013-04-02 15:02:00,42.3,17.9,30.21,NW,309,1.0,10.0,37,0.00,,BKN060,0.00,VWS V14.01,2013-04-02 19:02:00,
2013-04-02 15:07:00,42.6,18.2,30.21,WNW,294,3.0,10.0,37,0.00,,BKN060,0.00,VWS V14.01,2013-04-02 19:07:00,
2013-04-02 15:12:00,43.6,17.8,30.21,NW,305,4.0,10.0,35,0.00,,BKN060,0.00,VWS V14.01,2013-04-02 19:12:00,
2013-04-02 15:15:00,43.6,16.4,30.21,WNW,298,3.0,12.0,33,0.00,,OVC100,0.00,VWS V14.01,2013-04-02 19:15:00,
2013-04-02 15:17:00,43.6,15.7,30.21,WSW,258,2.0,12.0,32,0.00,,BKN060,0.00,VWS V14.01,2013-04-02 19:17:00,
2013-04-02 15:22:00,44.1,17.5,30.20,West,272,3.0,13.0,34,0.00,,BKN060,0.00,VWS V14.01,2013-04-02 19:22:00,
2013-04-02 15:27:00,43.6,15.7,30.21,WSW,253,2.0,13.0,32,0.00,,BKN060,0.00,VWS V14.01,2013-04-02 19:27:00,
2013-04-02 15:30:00,43.5,17.0,30.20,West,277,2.0,12.0,34,0.00,,OVC100,0.00,VWS V14.01,2013-04-02 19:30:00,
2013-04-02 15:33:00,43.6,17.1,30.20,NW,306,5.0,10.0,34,0.00,,BKN060,0.00,VWS V14.01,2013-04-02 19:33:00,
2013-04-02 15:38:00,43.5,16.3,30.20,WSW,258,3.0,12.0,33,0.00,,BKN060,0.00,VWS V14.01,2013-04-02 19:38:00,
2013-04-02 15:44:00,43.6,17.1,30.20,SW,224,5.0,11.0,34,0.00,,BKN060,0.00,VWS V14.01,2013-04-02 19:44:00,
2013-04-02 15:45:00,43.8,18.0,30.20,SSW,200,12.0,12.0,35,0.00,,OVC100,0.00,VWS V14.01,2013-04-02 19:45:00,
2013-04-02 15:49:00,43.8,15.9,30.20,WNW,284,0.0,12.0,32,0.00,,BKN060,0.00,VWS V14.01,2013-04-02 19:49:00,
2013-04-02 15:54:00,44.5,17.9,30.20,SW,232,10.0,12.0,34,0.00,,BKN060,0.00,VWS V14.01,2013-04-02 19:54:00,
2013-04-02 15:59:00,45.2,17.1,30.20,West,263,5.0,11.0,32,0.00,,BKN060,0.00,VWS V14.01,2013-04-02 19:59:00,
2013-04-02 16:00:00,45.1,16.3,30.20,West,268,5.0,11.0,31,0.00,,OVC100,0.00,VWS V14.01,2013-04-02 20:00:00,
2013-04-02 16:04:00,44.6,17.3,30.20,WNW,289,6.0,11.0,33,0.00,,SCT065,0.00,VWS V14.01,2013-04-02 20:04:00,
2013-04-02 16:09:00,44.1,16.1,30.20,NW,304,5.0,11.0,32,0.00,,SCT065,0.00,VWS V14.01,2013-04-02 20:09:00,
2013-04-02 16:14:00,44.3,16.3,30.20,WSW,258,0.0,11.0,32,0.00,,SCT065,0.00,VWS V14.01,2013-04-02 20:14:00,
2013-04-02 16:15:00,44.5,17.9,30.20,North,349,3.0,11.0,34,0.00,,OVC100,0.00,VWS V14.01,2013-04-02 20:15:00,
2013-04-02 16:19:00,44.1,15.4,30.20,NNW,336,1.0,8.0,31,0.00,,SCT065,0.00,VWS V14.01,2013-04-02 20:19:00,
2013-04-02 16:24:00,43.9,15.2,30.20,NNW,346,4.0,11.0,31,0.00,,SCT065,0.00,VWS V14.01,2013-04-02 20:24:00,
2013-04-02 16:29:00,44.5,15.0,30.19,WNW,288,3.0,11.0,30,0.00,,SCT065,0.00,VWS V14.01,2013-04-02 20:29:00,
2013-04-02 16:30:00,44.5,15.0,30.19,WNW,294,4.0,11.0,30,0.00,,OVC100,0.00,VWS V14.01,2013-04-02 20:30:00,
2013-04-02 16:34:00,44.6,14.3,30.19,WNW,287,7.0,20.0,29,0.00,,SCT065,0.00,VWS V14.01,2013-04-02 20:34:00,
2013-04-02 16:39:00,43.9,16.0,30.20,West,267,5.0,20.0,32,0.00,,SCT065,0.00,VWS V14.01,2013-04-02 20:39:00,
2013-04-02 16:44:00,44.1,14.7,30.20,West,271,0.0,11.0,30,0.00,,SCT065,0.00,VWS V14.01,2013-04-02 20:44:00,
2013-04-02 16:45:00,43.9,14.5,30.20,West,280,1.0,11.0,30,0.00,,OVC100,0.00,VWS V14.01,2013-04-02 20:45:00,
2013-04-02 16:50:00,44.2,16.2,30.20,SW,232,7.0,14.0,32,0.00,,SCT065,0.00,VWS V14.01,2013-04-02 20:50:00,
2013-04-02 16:55:00,44.9,16.1,30.20,WSW,253,2.0,14.0,31,0.00,,SCT065,0.00,VWS V14.01,2013-04-02 20:55:00,
2013-04-02 17:00:00,45.4,15.8,30.20,WNW,285,2.0,14.0,30,0.00,,SCT065,0.00,VWS V14.01,2013-04-02 21:00:00,
2013-04-02 17:05:00,45.8,16.1,30.20,WNW,299,5.0,14.0,30,0.00,,FEW070,0.00,VWS V14.01,2013-04-02 21:05:00,
2013-04-02 17:10:00,45.4,15.0,30.20,NNW,330,0.0,10.0,29,0.00,,FEW070,0.00,VWS V14.01,2013-04-02 21:10:00,
2013-04-02 17:15:00,45.2,14.9,30.20,WNW,302,4.0,9.0,29,0.00,,FEW070,0.00,VWS V14.01,2013-04-02 21:15:00,
2013-04-02 17:20:00,44.2,14.8,30.20,WNW,299,4.0,8.0,30,0.00,,FEW070,0.00,VWS V14.01,2013-04-02 21:20:00,
2013-04-02 17:26:00,44.2,14.8,30.20,SW,224,2.0,8.0,30,0.00,,FEW070,0.00,VWS V14.01,2013-04-02 21:26:00,
2013-04-02 17:30:00,44.5,14.2,30.20,West,263,6.0,7.0,29,0.00,,OVC100,0.00,VWS V14.01,2013-04-02 21:30:00,
2013-04-02 17:31:00,44.5,15.0,30.20,SW,232,1.0,7.0,30,0.00,,FEW070,0.00,VWS V14.01,2013-04-02 21:31:00,
2013-04-02 17:36:00,44.5,15.8,30.20,WNW,299,2.0,12.0,31,0.00,,FEW070,0.00,VWS V14.01,2013-04-02 21:36:00,
2013-04-02 17:41:00,44.6,14.3,30.20,NW,313,2.0,11.0,29,0.00,,FEW070,0.00,VWS V14.01,2013-04-02 21:41:00,
2013-04-02 17:45:00,44.1,14.7,30.20,WNW,294,2.0,14.0,30,0.00,,OVC100,0.00,VWS V14.01,2013-04-02 21:45:00,
2013-04-02 17:46:00,44.2,15.5,30.20,NW,309,1.0,14.0,31,0.00,,FEW070,0.00,VWS V14.01,2013-04-02 21:46:00,
2013-04-02 17:52:00,44.2,14.0,30.20,West,263,1.0,16.0,29,0.00,,FEW070,0.00,VWS V14.01,2013-04-02 21:52:00,
2013-04-02 17:57:00,43.5,14.1,30.21,NW,320,3.0,11.0,30,0.00,,FEW070,0.00,VWS V14.01,2013-04-02 21:57:00,
2013-04-02 18:00:00,43.2,13.1,30.20,WNW,296,0.0,11.0,29,0.00,,OVC100,0.00,VWS V14.01,2013-04-02 22:00:00,
2013-04-02 18:02:00,43.1,13.8,30.20,NNW,347,5.0,11.0,30,0.00,,FEW070,0.00,VWS V14.01,2013-04-02 22:02:00,
2013-04-02 18:07:00,43.5,14.1,30.21,WNW,299,1.0,8.0,30,0.00,,FEW070,0.00,VWS V14.01,2013-04-02 22:07:00,
2013-04-02 18:12:00,43.6,12.7,30.21,NW,312,2.0,11.0,28,0.00,,FEW070,0.00,VWS V14.01,2013-04-02 22:12:00,
2013-04-02 18:15:00,43.5,13.4,30.20,WNW,301,4.0,11.0,29,0.00,,OVC100,0.00,VWS V14.01,2013-04-02 22:15:00,
2013-04-02 18:17:00,43.6,14.2,30.20,West,278,0.0,10.0,30,0.00,,FEW070,0.00,VWS V14.01,2013-04-02 22:17:00,
2013-04-02 18:23:00,44.1,15.4,30.21,West,260,5.0,12.0,31,0.00,,FEW070,0.00,VWS V14.01,2013-04-02 22:23:00,
2013-04-02 18:28:00,43.5,14.1,30.21,WNW,298,1.0,12.0,30,0.00,,FEW070,0.00,VWS V14.01,2013-04-02 22:28:00,
2013-04-02 18:30:00,43.2,13.9,30.21,NW,318,4.0,11.0,30,0.00,,OVC100,0.00,VWS V14.01,2013-04-02 22:30:00,
2013-04-02 18:33:00,42.9,14.4,30.21,NW,318,3.0,11.0,31,0.00,,FEW070,0.00,VWS V14.01,2013-04-02 22:33:00,
2013-04-02 18:38:00,42.9,15.1,30.21,NW,309,1.0,7.0,32,0.00,,FEW070,0.00,VWS V14.01,2013-04-02 22:38:00,
2013-04-02 18:43:00,42.5,16.1,30.21,WSW,258,3.0,6.0,34,0.00,,FEW070,0.00,VWS V14.01,2013-04-02 22:43:00,
2013-04-02 18:45:00,42.5,16.1,30.21,North,0,6.0,8.0,34,0.00,,OVC100,0.00,VWS V14.01,2013-04-02 22:45:00,
2013-04-02 18:48:00,42.1,15.1,30.21,NNW,332,1.0,12.0,33,0.00,,FEW070,0.00,VWS V14.01,2013-04-02 22:48:00,
2013-04-02 18:53:00,41.8,15.5,30.22,NW,316,2.0,12.0,34,0.00,,FEW070,0.00,VWS V14.01,2013-04-02 22:53:00,
2013-04-02 18:58:00,41.5,15.2,30.22,NW,311,7.0,10.0,34,0.00,,FEW070,0.00,VWS V14.01,2013-04-02 22:58:00,
2013-04-02 19:00:00,41.5,15.2,30.22,WNW,298,2.0,10.0,34,0.00,,OVC100,0.00,VWS V14.01,2013-04-02 23:00:00,
2013-04-02 19:03:00,41.2,14.3,30.22,NW,311,2.0,10.0,33,0.00,,CLR,0.00,VWS V14.01,2013-04-02 23:03:00,
2013-04-02 19:08:00,40.9,14.7,30.22,North,359,4.0,8.0,34,0.00,,CLR,0.00,VWS V14.01,2013-04-02 23:08:00,
2013-04-02 19:14:00,40.6,15.8,30.22,NW,308,6.0,11.0,36,0.00,,CLR,0.00,VWS V14.01,2013-04-02 23:14:00,
2013-04-02 19:15:00,40.6,15.8,30.22,West,263,6.0,11.0,36,0.00,,OVC100,0.00,VWS V14.01,2013-04-02 23:15:00,
2013-04-02 19:19:00,40.5,15.7,30.22,NW,308,3.0,11.0,36,0.00,,CLR,0.00,VWS V14.01,2013-04-02 23:19:00,
2013-04-02 19:24:00,40.3,15.5,30.22,WNW,289,5.0,5.0,36,0.00,,CLR,0.00,VWS V14.01,2013-04-02 23:24:00,
2013-04-02 19:29:00,40.2,15.4,30.22,WNW,302,2.0,7.0,36,0.00,,CLR,0.00,VWS V14.01,2013-04-02 23:29:00,
2013-04-02 19:30:00,40.1,15.3,30.22,NW,315,1.0,7.0,36,0.00,,OVC100,0.00,VWS V14.01,2013-04-02 23:30:00,
2013-04-02 19:34:00,40.1,15.9,30.22,NW,326,1.0,2.0,37,0.00,,CLR,0.00,VWS V14.01,2013-04-02 23:34:00,
2013-04-02 19:39:00,39.8,15.7,30.22,NW,311,1.0,6.0,37,0.00,,CLR,0.00,VWS V14.01,2013-04-02 23:39:00,
2013-04-02 19:45:00,39.6,15.5,30.22,NW,316,2.0,8.0,37,0.00,,CLR,0.00,VWS V14.01,2013-04-02 23:45:00,
2013-04-02 19:50:00,39.3,15.8,30.22,NW,320,0.0,5.0,38,0.00,,CLR,0.00,VWS V14.01,2013-04-02 23:50:00,
2013-04-02 19:55:00,39.2,15.7,30.22,NNW,333,0.0,5.0,38,0.00,,CLR,0.00,VWS V14.01,2013-04-02 23:55:00,
2013-04-02 20:00:00,38.9,16.1,30.23,NNW,333,0.0,2.0,39,0.00,,CLR,0.00,VWS V14.01,2013-04-03 00:00:00,
2013-04-02 20:05:00,38.6,15.8,30.22,NNW,328,0.0,2.0,39,0.00,,CLR,0.00,VWS V14.01,2013-04-03 00:05:00,
2013-04-02 20:10:00,38.3,16.1,30.23,NW,325,1.0,2.0,40,0.00,,CLR,0.00,VWS V14.01,2013-04-03 00:10:00,
2013-04-02 20:15:00,38.2,16.6,30.23,NW,325,0.0,2.0,41,0.00,,CLR,0.00,VWS V14.01,2013-04-03 00:15:00,
2013-04-02 20:20:00,37.9,16.3,30.23,NW,325,0.0,1.0,41,0.00,,CLR,0.00,VWS V14.01,2013-04-03 00:20:00,
2013-04-02 20:25:00,37.6,16.6,30.23,NW,325,0.0,0.0,42,0.00,,CLR,0.00,VWS V14.01,2013-04-03 00:25:00,
2013-04-02 20:30:00,37.3,16.3,30.23,NW,325,0.0,1.0,42,0.00,,CLR,0.00,VWS V14.01,2013-04-03 00:30:00,
2013-04-02 20:35:00,37.2,16.8,30.24,NW,325,0.0,1.0,43,0.00,,CLR,0.00,VWS V14.01,2013-04-03 00:35:00,
2013-04-02 20:40:00,36.9,16.5,30.24,NNW,329,0.0,2.0,43,0.00,,CLR,0.00,VWS V14.01,2013-04-03 00:40:00,
2013-04-02 20:45:00,36.8,17.0,30.24,NNW,329,0.0,2.0,44,0.00,,OVC100,0.00,VWS V14.01,2013-04-03 00:45:00,
2013-04-02 20:46:00,36.6,16.8,30.24,NNW,329,0.0,1.0,44,0.00,,CLR,0.00,VWS V14.01,2013-04-03 00:46:00,
2013-04-02 20:51:00,36.5,17.2,30.24,NNW,329,0.0,0.0,45,0.00,,CLR,0.00,VWS V14.01,2013-04-03 00:51:00,
2013-04-02 20:57:00,36.2,16.9,30.24,NNW,329,0.0,0.0,45,0.00,,CLR,0.00,VWS V14.01,2013-04-03 00:57:00,
2013-04-02 21:00:00,36.2,17.4,30.25,NNW,329,0.0,0.0,46,0.00,,OVC100,0.00,VWS V14.01,2013-04-03 01:00:00,
2013-04-02 21:02:00,36.0,17.2,30.25,NNW,329,0.0,0.0,46,0.00,,CLR,0.00,VWS V14.01,2013-04-03 01:02:00,
2013-04-02 21:07:00,35.9,17.1,30.24,NNW,329,0.0,0.0,46,0.00,,CLR,0.00,VWS V14.01,2013-04-03 01:07:00,
2013-04-02 21:12:00,35.6,16.9,30.24,NNW,329,0.0,0.0,46,0.00,,CLR,0.00,VWS V14.01,2013-04-03 01:12:00,
2013-04-02 21:15:00,35.6,16.9,30.25,NNW,329,0.0,0.0,46,0.00,,OVC100,0.00,VWS V14.01,2013-04-03 01:15:00,
2013-04-02 21:17:00,35.6,16.9,30.25,NNW,329,0.0,0.0,46,0.00,,CLR,0.00,VWS V14.01,2013-04-03 01:17:00,
2013-04-02 21:22:00,35.5,16.8,30.25,NNW,329,0.0,0.0,46,0.00,,CLR,0.00,VWS V14.01,2013-04-03 01:22:00,
2013-04-02 21:27:00,35.3,16.6,30.25,NNW,329,0.0,0.0,46,0.00,,CLR,0.00,VWS V14.01,2013-04-03 01:27:00,
2013-04-02 21:30:00,35.3,16.6,30.25,NNW,329,0.0,0.0,46,0.00,,OVC100,0.00,VWS V14.01,2013-04-03 01:30:00,
2013-04-02 21:32:00,35.2,16.5,30.25,NNW,329,0.0,0.0,46,0.00,,CLR,0.00,VWS V14.01,2013-04-03 01:32:00,
2013-04-02 21:38:00,35.0,16.8,30.25,NNW,329,0.0,0.0,47,0.00,,CLR,0.00,VWS V14.01,2013-04-03 01:38:00,
2013-04-02 21:43:00,34.9,16.7,30.26,NNW,328,0.0,2.0,47,0.00,,CLR,0.00,VWS V14.01,2013-04-03 01:43:00,
2013-04-02 21:45:00,34.9,17.2,30.26,NNW,328,0.0,2.0,48,0.00,,OVC100,0.00,VWS V14.01,2013-04-03 01:45:00,
2013-04-02 21:48:00,34.7,17.0,30.26,NNW,328,0.0,0.0,48,0.00,,CLR,0.00,VWS V14.01,2013-04-03 01:48:00,
2013-04-02 21:53:00,34.6,16.9,30.26,NNW,328,0.0,0.0,48,0.00,,CLR,0.00,VWS V14.01,2013-04-03 01:53:00,
2013-04-02 21:58:00,34.4,16.8,30.26,NNW,328,0.0,0.0,48,0.00,,CLR,0.00,VWS V14.01,2013-04-03 01:58:00,
2013-04-02 22:00:00,34.4,16.8,30.26,NNW,328,0.0,0.0,48,0.00,,OVC100,0.00,VWS V14.01,2013-04-03 02:00:00,
2013-04-02 22:03:00,34.1,16.5,30.26,NNW,328,0.0,0.0,48,0.00,,CLR,0.00,VWS V14.01,2013-04-03 02:03:00,
2013-04-02 22:08:00,34.0,16.9,30.26,NNW,328,0.0,0.0,49,0.00,,CLR,0.00,VWS V14.01,2013-04-03 02:08:00,
2013-04-02 22:13:00,33.8,16.7,30.26,NNW,328,0.0,0.0,49,0.00,,CLR,0.00,VWS V14.01,2013-04-03 02:13:00,
2013-04-02 22:15:00,33.8,16.7,30.26,NNW,328,0.0,0.0,49,0.00,,OVC100,0.00,VWS V14.01,2013-04-03 02:15:00,
2013-04-02 22:19:00,33.7,16.6,30.26,NNW,328,0.0,0.0,49,0.00,,CLR,0.00,VWS V14.01,2013-04-03 02:19:00,
2013-04-02 22:24:00,33.5,16.9,30.26,NNW,328,0.0,0.0,50,0.00,,CLR,0.00,VWS V14.01,2013-04-03 02:24:00,
2013-04-02 22:29:00,33.4,16.8,30.26,NNW,328,0.0,0.0,50,0.00,,CLR,0.00,VWS V14.01,2013-04-03 02:29:00,
2013-04-02 22:30:00,33.4,16.8,30.26,NNW,328,0.0,0.0,50,0.00,,OVC100,0.00,VWS V14.01,2013-04-03 02:30:00,
2013-04-02 22:34:00,33.4,16.3,30.26,NNW,328,0.0,0.0,49,0.00,,CLR,0.00,VWS V14.01,2013-04-03 02:34:00,
2013-04-02 22:39:00,33.2,16.6,30.26,NNW,328,0.0,0.0,50,0.00,,CLR,0.00,VWS V14.01,2013-04-03 02:39:00,
2013-04-02 22:45:00,33.1,16.5,30.26,NNW,328,0.0,0.0,50,0.00,,CLR,0.00,VWS V14.01,2013-04-03 02:45:00,
2013-04-02 22:50:00,33.1,16.5,30.26,NNW,328,0.0,0.0,50,0.00,,CLR,0.00,VWS V14.01,2013-04-03 02:50:00,
2013-04-02 22:55:00,33.1,16.5,30.26,NNW,328,0.0,0.0,50,0.00,,CLR,0.00,VWS V14.01,2013-04-03 02:55:00,
2013-04-02 23:00:00,33.1,16.5,30.26,NNW,328,0.0,0.0,50,0.00,,CLR,0.00,VWS V14.01,2013-04-03 03:00:00,
2013-04-02 23:05:00,32.9,16.3,30.27,NNW,328,0.0,0.0,50,0.00,,CLR,0.00,VWS V14.01,2013-04-03 03:05:00,
2013-04-02 23:10:00,32.7,16.6,30.27,NNW,328,0.0,0.0,51,0.00,,CLR,0.00,VWS V14.01,2013-04-03 03:10:00,
2013-04-02 23:15:00,32.5,16.9,30.27,NNW,328,0.0,0.0,52,0.00,,CLR,0.00,VWS V14.01,2013-04-03 03:15:00,
2013-04-02 23:20:00,32.4,16.3,30.27,NNW,328,0.0,0.0,51,0.00,,CLR,0.00,VWS V14.01,2013-04-03 03:20:00,
2013-04-02 23:25:00,32.4,15.9,30.27,NNW,328,0.0,0.0,50,0.00,,CLR,0.00,VWS V14.01,2013-04-03 03:25:00,
2013-04-02 23:30:00,32.4,15.9,30.27,NNW,328,0.0,0.0,50,0.00,,CLR,0.00,VWS V14.01,2013-04-03 03:30:00,
2013-04-02 23:35:00,32.2,16.1,30.27,NNW,328,0.0,0.0,51,0.00,,CLR,0.00,VWS V14.01,2013-04-03 03:35:00,
2013-04-02 23:40:00,32.1,16.0,30.27,NNW,328,0.0,0.0,51,0.00,,CLR,0.00,VWS V14.01,2013-04-03 03:40:00,
2013-04-02 23:45:00,31.8,15.8,30.27,NNW,328,0.0,0.0,51,0.00,,CLR,0.00,VWS V14.01,2013-04-03 03:45:00,
2013-04-02 23:50:00,31.8,15.8,30.27,NNW,328,0.0,0.0,51,0.00,,CLR,0.00,VWS V14.01,2013-04-03 03:50:00,
2013-04-02 23:55:00,31.6,16.0,30.27,NNW,328,0.0,0.0,52,0.00,,CLR,0.00,VWS V14.01,2013-04-03 03:55:00,